星链-3177 (STARLINK-3177 )

导读

STARLINK-3177是美国太空探索技术公司(SpaceX)星链(Starlink)互联网星座中的一颗低轨卫星,于2022年1月19日发射升空。星链项目旨在通过部署数千颗低轨卫星,为全球提供高速低延迟互联网服务,尤其覆盖地面基础设施难以到达的偏远区域。作为星链星座的组成部分,该卫星运行在近地轨道,助力SpaceX实现全球宽带网络覆盖的建设目标,推动全球互联网接入普惠化,同时也因星座规模引发太空交通与天文观测的相关讨论。

基本信息
目录编号:
51138
目录名称:
STARLINK-3177
国际标识:
2022-005AL
轨道中心:
EARTH
卫星名称:
星链-3177
卫星全名:
星链-3177 (STARLINK-3177 )
卫星状态:
在轨 (已飞行1611 天)
发射日期:
2022-01-19 UTC
国别 :
美国 (US)
星等 :
--
轨道信息
数据来源 国际轨道数据 AOE轨道数据
星历时间 2026-06-17T16:21:08+0800
19小时前
查看轨道信息
2026-06-16T02:00:00+0800
2天前
查看轨道信息
半长轴 6917.112km 6917.326km
偏心率 0.0001211 0.0001099
轨道倾角 53.171° 53.171°
近地点辐角 61.570° 54.633°
升交点赤经 211.642° 218.827°
平近点角 298.542° 259.212°
近地点 538.137km 538.428km
远地点 539.813km 539.95km
周期 95.422分钟 95.426分钟
每日圈数 15.090915 15.090217
详细信息
固有亮度:
5
最大亮度:
2.5
卫星平台:
Starlink v1.5
覆盖范围:
全球
运营商:
太空探索技术公司
运营商所在国:
美国
制造商(研发单位):
太空探索技术公司
制造商所在国:
美国
使用方式:
暂无
卫星简介
星链(Starlink)计划是由太空探索技术公司(SpaceX)提出的一个巨型低轨卫星互联网星座项目,计划在2019年至2024年间在太空搭建由约1.2万颗卫星组成的“星链”网络,其中1584颗将部署在地球上空550千米处的近地轨道,并从2020年开始工作。该卫星仍在工作。
2D轨道图
3D轨道图
轨道高度分析图
轨道倾角分析图
轨道综合分析图
查看轨道综合分析图